Location: Earls Croome
(52.0667°N, 2.2000°W)
Time: 04:12:22
(UTC+00:00)

COSMOS 2455 - Pass Details

Date: 25 February 2020
Orbit: 901 x 909 km, 67.2° (Epoch: 04 April)

Event Time Altitude Azimuth Distance (km) Brightness Sun altitude
Exits shadow 03:37:09 14° 336° (NNW) 2,296 5.0 -31.8°
Maximum altitude 03:40:57 25° 23° (NNE) 1,750 4.7 -31.3°
Drops below altitude 10° 03:45:51 10° 77° (ENE) 2,598 6.1 -30.6°
Sets 03:48:51 0° 91° (E) 3,538 6.8 -30.2°
